Weather History for KSBO - August, 2014

Change the Weather History Date:

Thursday, August 14, 2014

  Actual Average Record
Temperature  
Mean Temperature 80 °F -  
Max Temperature 91 °F 90 °F 91 °F (2014)
Min Temperature 68 °F 68 °F 68 °F (2014)
Cooling Degree Days 14    
Growing Degree Days 30 (Base 50)    
Moisture  
Dew Point 69 °F    
Average Humidity 72    
Maximum Humidity 100    
Minimum Humidity 43    
Precipitation  
Precipitation 0.00 in - - ()
Sea Level Pressure  
Sea Level Pressure 30.00 in    
Wind  
Wind Speed 2 mph (East)    
Max Wind Speed 8 mph    
Max Gust Speed -    
Visibility 10 miles    
Events      
Averages and records for this station are not official NWS values.
T = Trace of Precipitation, MM = Missing Value Source: NWS Daily Summary

Daily Weather History Graph

Daily Weather History Graph

Search for Another Location

Airport or City:

Trip Planner

Search our weather history database for the weather conditions in past years. The results will help you decide how hot, cold, wet, or windy it might be!

Date:

Astronomy

Aug. 14, 2014 Rise Set
Actual Time 6:52 AM EDT 8:15 PM EDT
Civil Twilight 6:26 AM EDT 8:41 PM EDT
Nautical Twilight 5:55 AM EDT 9:12 PM EDT
Astronomical Twilight 5:22 AM EDT 9:44 PM EDT
Moon 10:57 PM EDT (8/14) 11:09 AM EDT (8/14)
Length of Visible Light 14h 14m
Length of Day
13h 22m
Waning Gibbous, 79% of the Moon is Illuminated
Aug 14
Waning Gibbous
Aug 17
Last Quarter
Aug 25
New
Sep 2
First Quarter
Sep 8
Full

Hourly Weather History & Observations

Time (EDT) Temp. Heat Index Dew Point Humidity Pressure Visibility Wind Dir Wind Speed Gust Speed Precip Events Conditions
12:15 AM 78.8 °F - 64.4 °F 61% 29.98 in 10.0 mi Calm Calm - N/A   Mostly Cloudy
12:35 AM 77.0 °F - 66.2 °F 69% 29.99 in 10.0 mi Calm Calm - N/A   Mostly Cloudy
12:55 AM 77.0 °F - 68.0 °F 74% 29.99 in 10.0 mi Calm Calm - N/A   Mostly Cloudy
1:15 AM 73.4 °F - 68.0 °F 83% 29.99 in 10.0 mi Calm Calm - N/A   Scattered Clouds
1:35 AM 73.4 °F - 68.0 °F 83% 29.99 in 10.0 mi Calm Calm - N/A   Mostly Cloudy
1:55 AM 71.6 °F - 68.0 °F 88% 29.98 in 10.0 mi NNW 3.5 mph - N/A   Mostly Cloudy
2:15 AM 71.6 °F - 68.0 °F 88% 29.98 in 10.0 mi Calm Calm - N/A   Scattered Clouds
2:35 AM 71.6 °F - 68.0 °F 88% 29.98 in 10.0 mi Calm Calm - N/A   Scattered Clouds
2:55 AM 69.8 °F - 68.0 °F 94% 29.98 in 10.0 mi Calm Calm - N/A   Clear
3:15 AM 69.8 °F - 69.8 °F 100% 29.97 in 10.0 mi Calm Calm - N/A   Clear
3:35 AM 69.8 °F - 69.8 °F 100% 29.97 in 10.0 mi Calm Calm - N/A   Clear
3:55 AM 68.0 °F - 68.0 °F 100% 29.97 in 10.0 mi Calm Calm - N/A   Clear
4:15 AM 69.8 °F - 68.0 °F 94% 29.97 in 10.0 mi Calm Calm - N/A   Clear
4:35 AM 68.0 °F - 68.0 °F 100% 29.98 in 10.0 mi Calm Calm - N/A   Clear
4:55 AM 68.0 °F - 68.0 °F 100% 29.98 in 10.0 mi Calm Calm - N/A   Clear
5:15 AM 68.0 °F - 68.0 °F 100% 29.98 in 10.0 mi Calm Calm - N/A   Clear
5:35 AM 69.8 °F - 69.8 °F 100% 29.98 in 10.0 mi Calm Calm - N/A   Scattered Clouds
5:55 AM 68.0 °F - 68.0 °F 100% 29.98 in 10.0 mi Calm Calm - N/A   Scattered Clouds
6:15 AM 68.0 °F - 68.0 °F 100% 29.99 in 10.0 mi Calm Calm - N/A   Mostly Cloudy
6:35 AM 69.8 °F - 69.8 °F 100% 29.99 in 10.0 mi Calm Calm - N/A   Scattered Clouds
6:55 AM 68.0 °F - 68.0 °F 100% 30.00 in 10.0 mi Calm Calm - N/A   Scattered Clouds
7:15 AM 68.0 °F - 68.0 °F 100% 30.01 in 10.0 mi Calm Calm - N/A   Scattered Clouds
7:35 AM 69.8 °F - 69.8 °F 100% 30.01 in 10.0 mi Calm Calm - N/A   Scattered Clouds
7:55 AM 71.6 °F - 71.6 °F 100% 30.02 in 10.0 mi NE 3.5 mph - N/A   Clear
8:15 AM 73.4 °F - 68.0 °F 83% 30.03 in 10.0 mi ENE 4.6 mph - N/A   Clear
8:35 AM 75.2 °F - 68.0 °F 78% 30.03 in 10.0 mi ENE 4.6 mph - N/A   Clear
8:55 AM 77.0 °F - 68.0 °F 74% 30.03 in 10.0 mi ENE 5.8 mph - N/A   Clear
9:15 AM 78.8 °F - 68.0 °F 69% 30.03 in 10.0 mi East 6.9 mph - N/A   Clear
9:55 AM 78.8 °F - 68.0 °F 69% 30.04 in 10.0 mi ENE 5.8 mph - N/A   Clear
10:15 AM 80.6 °F 83.2 °F 68.0 °F 65% 30.05 in 10.0 mi East 6.9 mph - N/A   Clear
10:35 AM 80.6 °F 83.2 °F 68.0 °F 65% 30.05 in 10.0 mi East 6.9 mph - N/A   Clear
10:55 AM 82.4 °F 85.4 °F 68.0 °F 62% 30.06 in 10.0 mi ESE 4.6 mph - N/A   Clear
11:15 AM 82.4 °F 85.4 °F 68.0 °F 62% 30.06 in 10.0 mi East 5.8 mph - N/A   Clear
11:35 AM 84.2 °F 88.4 °F 69.8 °F 62% 30.06 in 10.0 mi ENE 5.8 mph - N/A   Clear
11:55 AM 84.2 °F 88.4 °F 69.8 °F 62% 30.05 in 10.0 mi ESE 3.5 mph - N/A   Clear
12:15 PM 86.0 °F 89.4 °F 68.0 °F 55% 30.05 in 10.0 mi South 5.8 mph - N/A   Clear
12:35 PM 86.0 °F 89.4 °F 68.0 °F 55% 30.04 in 10.0 mi East 3.5 mph - N/A   Clear
1:15 PM 87.8 °F 90.4 °F 66.2 °F 49% 30.02 in 10.0 mi Calm Calm - N/A   Clear
1:35 PM 89.6 °F 93.4 °F 68.0 °F 49% 30.01 in 10.0 mi East 6.9 mph - N/A   Scattered Clouds
1:55 PM 87.8 °F 91.4 °F 68.0 °F 52% 30.01 in 10.0 mi Calm Calm - N/A   Mostly Cloudy
2:15 PM 89.6 °F 92.2 °F 66.2 °F 46% 30.00 in 10.0 mi SSE 5.8 mph - N/A   Scattered Clouds
2:35 PM 89.6 °F 92.2 °F 66.2 °F 46% 29.99 in 10.0 mi East 4.6 mph - N/A   Mostly Cloudy
2:55 PM 89.6 °F 93.4 °F 68.0 °F 49% 29.98 in 10.0 mi NE 5.8 mph - N/A   Mostly Cloudy
3:15 PM 89.6 °F 92.2 °F 66.2 °F 46% 29.97 in 10.0 mi East 6.9 mph - N/A   Scattered Clouds
3:35 PM 89.6 °F 91.1 °F 64.4 °F 43% 29.96 in 10.0 mi Calm Calm - N/A   Scattered Clouds
3:55 PM 91.4 °F 95.4 °F 68.0 °F 46% 29.96 in 10.0 mi ENE 8.1 mph - N/A   Scattered Clouds
4:15 PM 91.4 °F 95.4 °F 68.0 °F 46% 29.96 in 10.0 mi East 5.8 mph - N/A   Scattered Clouds
4:35 PM 89.6 °F 93.4 °F 68.0 °F 49% 29.96 in 10.0 mi East 4.6 mph - N/A   Scattered Clouds
4:55 PM 89.6 °F 93.4 °F 68.0 °F 49% 29.97 in 10.0 mi East 5.8 mph - N/A   Mostly Cloudy
5:15 PM 91.4 °F 95.4 °F 68.0 °F 46% 29.96 in 10.0 mi ENE 5.8 mph - N/A   Overcast
5:35 PM 91.4 °F 95.4 °F 68.0 °F 46% 29.96 in 10.0 mi ENE 6.9 mph - N/A   Mostly Cloudy
5:55 PM 89.6 °F 93.4 °F 68.0 °F 49% 29.97 in 10.0 mi East 4.6 mph - N/A   Mostly Cloudy
6:15 PM 89.6 °F 93.4 °F 68.0 °F 49% 29.97 in 10.0 mi ENE 4.6 mph - N/A   Scattered Clouds
6:35 PM 89.6 °F 93.4 °F 68.0 °F 49% 29.96 in 10.0 mi NE 4.6 mph - N/A   Clear
6:55 PM 89.6 °F 93.4 °F 68.0 °F 49% 29.96 in 10.0 mi East 4.6 mph - N/A   Clear
7:15 PM 87.8 °F 91.4 °F 68.0 °F 52% 29.95 in 10.0 mi ENE 4.6 mph - N/A   Clear
7:35 PM 87.8 °F 91.4 °F 68.0 °F 52% 29.96 in 10.0 mi Calm Calm - N/A   Clear
7:55 PM 86.0 °F 89.4 °F 68.0 °F 55% 29.97 in 10.0 mi Calm Calm - N/A   Clear
8:15 PM 82.4 °F 86.3 °F 69.8 °F 66% 29.97 in 10.0 mi Calm Calm - N/A   Clear
8:35 PM 80.6 °F 83.9 °F 69.8 °F 70% 29.98 in 10.0 mi East 3.5 mph - N/A   Clear
8:55 PM 80.6 °F 83.9 °F 69.8 °F 70% 29.99 in 10.0 mi Calm Calm - N/A   Clear
9:15 PM 78.8 °F - 69.8 °F 74% 29.99 in 10.0 mi ENE 3.5 mph - N/A   Clear
9:35 PM 78.8 °F - 69.8 °F 74% 30.00 in 10.0 mi NE 3.5 mph - N/A   Scattered Clouds
9:55 PM 80.6 °F 83.9 °F 69.8 °F 70% 29.99 in 10.0 mi ENE 3.5 mph - N/A   Scattered Clouds
10:15 PM 80.6 °F 83.9 °F 69.8 °F 70% 30.00 in 10.0 mi ESE 4.6 mph - N/A   Overcast
10:35 PM 80.6 °F 85.4 °F 73.4 °F 79% 30.01 in 10.0 mi ESE 5.8 mph - N/A   Mostly Cloudy
10:55 PM 80.6 °F 85.4 °F 73.4 °F 79% 30.01 in 10.0 mi ESE 4.6 mph - N/A   Scattered Clouds
11:15 PM 78.8 °F - 73.4 °F 83% 30.01 in 10.0 mi ESE 4.6 mph - N/A   Scattered Clouds
11:35 PM 78.8 °F - 75.2 °F 89% 30.01 in 10.0 mi East 3.5 mph - N/A   Clear
11:55 PM 78.8 °F - 75.2 °F 89% 30.01 in 10.0 mi ESE 4.6 mph - N/A   Clear